Regional Weather Roundup
Issued by NWS

Home | Current Version | Previous Version | Graphics & Text | Print | Product List | Glossary On
Versions: 1 2 3 4 5 6 7 8 9 10 11 12 13 14 15 16 17 18 19 20 21 22 23 24 25 26 27 28 29 30 31 32 33 34 35 36 37 38 39 40 41 42 43 44 45 46 47 48 49 50
000
ASUS43 KOAX 030810
RWRNE

WEATHER ROUNDUP FOR NEBRASKA
NATIONAL WEATHER SERVICE OMAHA NE
300 AM CDT SUN MAY 03 2015

NOTES: SATELLITE DATA IS BEING USED TO AUGMENT CLOUD COVER ABOVE
       12000 FEET.
       "FAIR" INDICATES FEW OR NO CLOUDS BELOW 12,000 FEET WITH NO
       SIGNIFICANT WEATHER AND/OR OBSTRUCTIONS TO VISIBILITY.

  * THESE STATIONS DO NOT REPORT WEATHER SUCH AS RAIN...SNOW OR FOG.

NEZ001>004-019>022-054>056-030900-
NEBRASKA PANHANDLE

CITY           SKY/WX    TMP DP  RH WIND       PRES   REMARKS
SCOTTSBLUFF    CLOUDY    56  41  57 N3        29.81F
ALLIANCE       PTCLDY    49  41  74 S3        29.79F
CHADRON        MOCLDY    49  39  68 CALM      29.76F
KIMBALL        PTCLDY    53  41  65 W12       29.87S
SIDNEY         CLEAR     51  42  71 W12       29.86F
$$

NEZ057>060-069>072-079>082-030900-
SOUTHWEST NEBRASKA

CITY           SKY/WX    TMP DP  RH WIND       PRES   REMARKS
NORTH PLATTE   PTCLDY    52  45  77 CALM      29.76F
IMPERIAL       PTCLDY    57  42  57 W9        29.80F
LEXINGTON      PTCLDY    54  46  74 W3        29.75R
MCCOOK         MOCLDY    58  45  62 SW6       29.76S
OGALLALA       MOCLDY    58  46  65 SW9       29.78S
$$

NEZ005>010-023>029-035>040-094-030900-
NORTH CENTRAL NEBRASKA

CITY           SKY/WX    TMP DP  RH WIND       PRES   REMARKS
VALENTINE      MOCLDY    53  39  59 W8        29.70S
AINSWORTH      MOCLDY    56  46  66 W6        29.69F
BROKEN BOW     CLEAR     63  41  44 W7        29.71F
O`NEILL        PTCLDY    60  51  73 SE9       29.71S
ORD            PTCLDY    56  46  69 S5        29.70S
THEDFORD       PTCLDY    61  43  52 W10       29.73F
$$

NEZ041-046>049-061>064-073>077-083>087-030900-
SOUTH CENTRAL NEBRASKA

CITY           SKY/WX    TMP DP  RH WIND       PRES   REMARKS
GRAND ISLAND   CLEAR     66  51  58 S12       29.72F
AURORA         PTCLDY    62  53  73 SE14      29.73S
HASTINGS       PTCLDY    65  51  60 S9        29.73F
HEBRON         PTCLDY    64  53  65 S10       29.75F
HOLDREGE       CLEAR     61  47  60 S6        29.74F
KEARNEY *      CLEAR     63  48  59 W9        29.74S
YORK           PTCLDY    64  55  72 SE10      29.76S
$$

NEZ011>018-030>034-042>045-030900-
NORTHEAST NEBRASKA

CITY           SKY/WX    TMP DP  RH WIND       PRES   REMARKS
NORFOLK        CLEAR     64  52  64 S20       29.72S
ALBION         PTCLDY    59  53  81 SE13      29.73R
BLAIR          CLOUDY    59  56  89 SE8       29.81F
COLUMBUS *     CLEAR     63  50  63 SE7       29.78R
FREMONT        CLOUDY    62  55  76 SE16G23   29.79F
TEKAMAH        CLOUDY    61  55  81 S15       29.75F
WAYNE          MOCLDY    64  52  64 S20G28    29.73R
$$

NEZ050>053-065>068-078-088>093-030900-
SOUTHEAST NEBRASKA

CITY           SKY/WX    TMP DP  RH WIND       PRES   REMARKS
LINCOLN        PTCLDY    62  53  72 SE12      29.80F
OMAHA EPPLEY   TSTM      61  59  93 SE7       29.83S
BEATRICE       PTCLDY    65  53  66 E8        29.79F
FALLS CITY     CLOUDY    63  54  72 N6        29.85R
NEBRASKA CITY  CLOUDY    62  52  70 E8        29.84F
PLATTSMOUTH    CLOUDY    59  55  88 CALM      29.83R
$$

NEZ044-045-051>053-067-030900-
OMAHA AREA

CITY           SKY/WX    TMP DP  RH WIND       PRES   REMARKS
OMAHA EPPLEY   TSTM      61  59  93 SE7       29.83S
BLAIR          CLOUDY    59  56  89 SE8       29.81F
FREMONT        CLOUDY    62  55  76 SE16G23   29.79F
MILLARD        CLOUDY    60  57  89 E5        29.82F
OFFUTT AFB     CLOUDY    59  57  94 VRB1      29.82R THUNDER
PLATTSMOUTH    CLOUDY    59  55  88 CALM      29.83R
WAHOO          FAIR      61  53  75 E13       29.80S
$$



USA.gov is the U.S. government's official web portal to all federal, state and local government web resources and services.